FW3919 Weather Reports


time (UTC)temp
C
wind
direction
speed
KPH
gust
KPH
rain 1hr
cm
rain 24hr
cm
rain mn
cm
humidity
%
barometer
mb
20260504081542 6 199 3.2 9.7 0.00 0.00 0.00 77 1007.2
20260504044537 5 178 3.2 11.3 0.00 0.03 0.00 62 1008.1
20260504043023 5 192 3.2 8.0 0.00 0.03 0.00 63 1008.1
20260504041519 5 200 3.2 9.7 0.00 0.03 0.00 66 1008.2
20260504040019 3 171 1.6 8.0 0.00 0.03 0.03 69 1008.2
20260504034514 3 203 3.2 6.4 0.00 0.03 0.03 72 1008.3
20260504033011 2 195 1.6 8.0 0.00 0.03 0.03 73 1008.3
20260504031509 2 163 3.2 6.4 0.00 0.03 0.03 74 1008.4
20260504030010 2 186 1.6 4.8 0.00 0.05 0.03 74 1008.4
20260504024510 3 188 1.6 4.8 0.00 0.05 0.03 71 1008.5
20260504023010 4 227 3.2 8.0 0.00 0.05 0.03 67 1008.6
20260504021509 4 228 3.2 9.7 0.00 0.05 0.03 68 1008.7
20260504020015 3 239 3.2 6.4 0.00 0.08 0.03 72 1008.7
20260504014509 3 212 1.6 4.8 0.00 0.08 0.03 74 1008.7
20260504013011 2 225 1.6 6.4 0.00 0.08 0.03 73 1008.8
20260504011509 2 257 0.0 1.6 0.00 0.08 0.03 75 1008.7
20260504010009 3 257 0.0 3.2 0.00 0.10 0.03 76 1008.5
20260504004517 3 256 0.0 4.8 0.00 0.10 0.03 75 1008.5
20260504003005 5 211 0.0 4.8 0.00 0.10 0.03 71 1008.4
20260504001505 6 190 0.0 3.2 0.00 0.10 0.03 68 1008.4
20260504000004 7 190 0.0 3.2 0.00 0.13 0.03 62 1008.3
20260503234505 7 190 0.0 3.2 0.00 0.13 0.03 58 1008.3
20260503233005 8 190 1.6 6.4 0.00 0.13 0.03 55 1008.2
20260503231506 8 232 0.0 4.8 0.00 0.13 0.03 57 1008.2
20260503230004 8 235 1.6 6.4 0.00 0.15 0.03 55 1008.2
20260503224503 8 263 3.2 8.0 0.00 0.15 0.03 55 1008.1
20260503223003 8 326 1.6 6.4 0.00 0.15 0.03 54 1008.1
20260503221503 8 334 1.6 4.8 0.00 0.15 0.03 54 1008.2
20260503220009 9 252 1.6 6.4 0.00 0.15 0.03 53 1008.1
20260503214502 9 343 0.0 6.4 0.00 0.15 0.03 53 1008.1
20260503213009 9 336 0.0 6.4 0.00 0.15 0.03 54 1008.2
20260503211506 9 326 3.2 6.4 0.00 0.15 0.03 53 1008.1
20260503210005 8 346 1.6 6.4 0.00 0.15 0.03 55 1008.1
20260503204505 8 331 3.2 14.5 0.00 0.15 0.03 54 1008.0
20260503203104 8 329 3.2 14.5 0.00 0.15 0.03 58 1008.2
20260503201559 8 341 6.4 16.1 0.00 0.15 0.03 55 1008.2
20260503194555 8 10 4.8 16.1 0.00 0.15 0.03 59 1008.8
20260503193101 7 323 3.2 19.3 0.00 0.15 0.03 59 1008.8
20260503191552 8 321 4.8 16.1 0.00 0.15 0.03 56 1008.8
20260503190054 8 349 4.8 12.9 0.00 0.15 0.03 59 1008.9
20260503184603 8 317 4.8 16.1 0.00 0.15 0.03 60 1009.1
20260503183058 8 323 4.8 14.5 0.00 0.15 0.03 60 1009.1
20260503181559 7 321 6.4 20.9 0.00 0.15 0.03 59 1009.2
20260503180047 7 304 1.6 12.9 0.00 0.15 0.03 59 1009.2
20260503174545 8 314 4.8 14.5 0.00 0.15 0.03 64 1009.4
20260503173056 7 317 6.4 19.3 0.00 0.15 0.03 63 1009.4
20260503171544 7 339 8.0 17.7 0.00 0.15 0.03 62 1009.5